Вернуться в каталог

STARLINK-30777

АктивенСвязьVLEO
NORAD 58233·PAYLOAD·🇺🇸 United States

Запущен Nov 8, 2023 с Cape Canaveral Space Force Station

Loading…

Ближайшие Пролёты (ближайшие 24 часа)

TLE

СвежийSource: CelesTrak SupGP

Эпоха: Sep 14, 2026, 22:26 UTC

1 58233C 23171D   26257.93520833  .00015696  00000+0  56857-3 0  2577
2 58233  43.0003 296.8192 0001483 264.8353  77.9566 15.27566555    15

Отслеживайте STARLINK-30777 в реальном времени с AllMySat

Download on the App Store